User: anonymous   Login
Location: Ammerl�gen
(47.2167°N, 9.6000°E)
Time: 02:41:12
(UTC+00:00)
Language:

Cosmos 676 Rocket - Orbit

View from above orbital plane
View from above orbital plane
View from above satellite
View from above satellite

Ground track
Ground track

The orbit data is extracted from the following two-line orbital elements,

1 07434U 74071B   21174.57205189  .00000072  00000-0  33167-4 0  9992
2 07434  74.0476  38.9476 0021407 305.4551  54.4604 14.36770218447166
Epoch (UTC): 23 June 2021 13:43:45
Eccentricity: 0.0021407
inclination: 74.0476°
perigee height: 754 km
apogee height: 784 km
right ascension of ascending node: 38.9476°
argument of perigee: 305.4551°
revolutions per day: 14.36770218
mean anomaly at epoch: 54.4604°
orbit number at epoch: 44716

The dashed part of the orbit path shows where the satellite is in the earth's shadow,  

DLR